QTR78M OTHH-LIMC

Flight info

Callsign QTR78M
Flight time N/A
Altitude 28000
Route DATRI L564 BAT/N0488F290 L564 MIGMA/N0474F280 M628 AMBAG/N0488F380 M321 NAGUB/N0486F400 M321 KSA T503 OVANO L768 FIRAS R655 KTN R785 NIKAS L619 VESAR UN135 IMR UN127 RIKSO DCT TALAS DCT MAVAR DCT GEBNI DCT SPL DCT BAXON/N0483F410 DCT GOXIN DCT OTNUN DCT LOMED/N0480F400 DCT BEROK DCT MIVKI DCT GOLAS/N0379F180 T648 MEBUR
Aircraft A359/H-SDE2E3GHIJ3J4J5LM1ORWXY/LB1D1

Departure

Time N/A
Airport Hamad International Airport (OTHH)

Arrival

Time 2026-05-06 18:03
Airport Milan Malpensa International Airport (LIMC)
Time Latitude Longitude Altitude Speed Heading
2026-05-06 16:18 41.02508 22.03330 38021 ft 446 kts 302°
2026-05-06 16:19 41.05756 21.96315 38021 ft 447 kts 302°
2026-05-06 16:19 41.08997 21.89283 38017 ft 447 kts 301°
2026-05-06 16:20 41.12065 21.82289 38018 ft 446 kts 300°
2026-05-06 16:20 41.15135 21.75147 38019 ft 446 kts 300°
2026-05-06 16:21 41.18224 21.67993 38016 ft 447 kts 300°
2026-05-06 16:21 41.21324 21.60843 38013 ft 447 kts 300°
2026-05-06 16:22 41.24421 21.53692 38021 ft 447 kts 300°
2026-05-06 16:22 41.27013 21.47688 38022 ft 447 kts 300°
2026-05-06 16:23 41.30078 21.40573 38021 ft 446 kts 300°
2026-05-06 16:23 41.33164 21.33399 38018 ft 446 kts 300°
2026-05-06 16:24 41.36240 21.26227 38022 ft 446 kts 300°
2026-05-06 16:24 41.39313 21.19049 38023 ft 446 kts 300°
2026-05-06 16:25 41.42311 21.12029 38034 ft 446 kts 300°
2026-05-06 16:25 41.45368 21.04845 38031 ft 446 kts 299°
2026-05-06 16:26 41.48425 20.97652 38038 ft 446 kts 299°
2026-05-06 16:26 41.51481 20.90440 38037 ft 446 kts 300°
2026-05-06 16:27 41.54512 20.83274 38054 ft 446 kts 300°
2026-05-06 16:27 41.57555 20.76056 38048 ft 446 kts 299°
2026-05-06 16:28 41.60513 20.69025 38052 ft 445 kts 299°
2026-05-06 16:28 41.63544 20.61805 38056 ft 446 kts 299°
2026-05-06 16:29 41.66571 20.54569 38058 ft 445 kts 299°
2026-05-06 16:29 41.69738 20.47442 38059 ft 445 kts 303°
2026-05-06 16:30 41.72614 20.41727 38067 ft 446 kts 304°
2026-05-06 16:30 41.76667 20.33684 38070 ft 445 kts 303°
2026-05-06 16:31 41.80058 20.26788 38068 ft 445 kts 302°
2026-05-06 16:31 41.83439 20.19833 38068 ft 445 kts 302°
2026-05-06 16:32 41.86816 20.12860 38074 ft 446 kts 302°
2026-05-06 16:32 41.90201 20.05862 38071 ft 446 kts 302°
2026-05-06 16:33 41.93555 19.98919 38071 ft 446 kts 302°
2026-05-06 16:34 41.98605 19.88425 38070 ft 445 kts 302°
2026-05-06 16:34 42.01963 19.81426 38074 ft 446 kts 302°
2026-05-06 16:35 42.05329 19.74400 38061 ft 450 kts 302°
2026-05-06 16:35 42.07028 19.70847 38222 ft 451 kts 302°
2026-05-06 16:35 42.08721 19.67302 38494 ft 450 kts 302°
2026-05-06 16:35 42.10411 19.63761 38695 ft 450 kts 302°
2026-05-06 16:36 42.12100 19.60215 38868 ft 450 kts 302°
2026-05-06 16:36 42.13792 19.56656 39036 ft 451 kts 301°
2026-05-06 16:36 42.15480 19.53100 39188 ft 451 kts 301°
2026-05-06 16:36 42.17171 19.49532 39349 ft 451 kts 301°
2026-05-06 16:37 42.18861 19.45965 39528 ft 451 kts 301°
2026-05-06 16:37 42.20526 19.42446 39640 ft 452 kts 301°
2026-05-06 16:37 42.22240 19.38821 39782 ft 453 kts 301°
2026-05-06 16:37 42.23931 19.35242 39926 ft 453 kts 301°
2026-05-06 16:38 42.25624 19.31653 40082 ft 452 kts 301°
2026-05-06 16:38 42.27312 19.28069 40223 ft 452 kts 301°
2026-05-06 16:38 42.28977 19.24530 40335 ft 453 kts 301°
2026-05-06 16:38 42.30663 19.20942 40487 ft 453 kts 301°
2026-05-06 16:39 42.32350 19.17347 40599 ft 453 kts 301°
2026-05-06 16:39 42.34035 19.13753 40736 ft 453 kts 301°
2026-05-06 16:39 42.35722 19.10149 40859 ft 453 kts 301°
2026-05-06 16:39 42.37408 19.06545 40993 ft 453 kts 301°
2026-05-06 16:40 42.39091 19.02942 41068 ft 454 kts 301°
2026-05-06 16:40 42.42467 18.95702 41073 ft 454 kts 301°
2026-05-06 16:41 42.45833 18.88467 41073 ft 454 kts 301°
2026-05-06 16:41 42.49198 18.81219 41064 ft 454 kts 301°
2026-05-06 16:42 42.52559 18.73962 41076 ft 454 kts 301°
2026-05-06 16:42 42.55914 18.66700 41070 ft 454 kts 301°
2026-05-06 16:43 42.59269 18.59420 41067 ft 454 kts 301°
2026-05-06 16:43 42.62592 18.52193 41049 ft 454 kts 301°
2026-05-06 16:44 42.65936 18.44899 41048 ft 454 kts 301°
2026-05-06 16:44 42.69267 18.37623 41042 ft 451 kts 300°
2026-05-06 16:45 42.72568 18.30394 41045 ft 449 kts 300°
2026-05-06 16:45 42.75853 18.23176 41051 ft 448 kts 300°
2026-05-06 16:46 42.79132 18.15950 41048 ft 449 kts 300°
2026-05-06 16:46 42.82297 18.08772 41041 ft 449 kts 297°
2026-05-06 16:47 42.85197 18.01254 41038 ft 448 kts 296°
2026-05-06 16:47 42.88024 17.93760 41035 ft 447 kts 296°
2026-05-06 16:48 42.90912 17.86239 41028 ft 447 kts 296°
2026-05-06 16:48 42.93826 17.78728 41027 ft 448 kts 296°
2026-05-06 16:49 42.96744 17.71208 41018 ft 448 kts 296°
2026-05-06 16:49 42.99652 17.63688 41021 ft 449 kts 296°
2026-05-06 16:50 43.02564 17.56136 41029 ft 450 kts 296°
2026-05-06 16:50 43.05467 17.48582 41034 ft 449 kts 296°
2026-05-06 16:51 43.08353 17.41055 41035 ft 449 kts 296°
2026-05-06 16:51 43.11075 17.33938 41027 ft 448 kts 296°
2026-05-06 16:52 43.13950 17.26400 41024 ft 445 kts 296°
2026-05-06 16:52 43.16721 17.19113 41025 ft 445 kts 296°
2026-05-06 16:53 43.19576 17.11587 41019 ft 445 kts 296°
2026-05-06 16:53 43.22287 17.04422 41038 ft 445 kts 295°
2026-05-06 16:54 43.25130 16.96891 41021 ft 444 kts 295°
2026-05-06 16:54 43.27965 16.89357 41020 ft 444 kts 295°
2026-05-06 16:55 43.30794 16.81821 41046 ft 444 kts 295°
2026-05-06 16:55 43.33616 16.74284 41048 ft 444 kts 295°
2026-05-06 16:56 43.36437 16.66729 41053 ft 444 kts 295°
2026-05-06 16:56 43.39258 16.59151 41043 ft 446 kts 295°
2026-05-06 16:57 43.42062 16.51603 41039 ft 446 kts 295°
2026-05-06 16:57 43.44879 16.43999 41019 ft 445 kts 295°
2026-05-06 16:58 43.47682 16.36409 41021 ft 445 kts 295°
2026-05-06 16:58 43.50484 16.28798 41020 ft 446 kts 294°
2026-05-06 16:59 43.53155 16.21067 41021 ft 447 kts 292°
2026-05-06 16:59 43.55745 16.13286 41019 ft 446 kts 292°
2026-05-06 17:00 43.58345 16.05518 41008 ft 446 kts 293°
2026-05-06 17:00 43.60961 15.97749 40996 ft 446 kts 293°
2026-05-06 17:01 43.63587 15.89951 40978 ft 448 kts 293°
2026-05-06 17:01 43.66194 15.82191 40977 ft 448 kts 293°
2026-05-06 17:02 43.68812 15.74372 40973 ft 448 kts 293°
2026-05-06 17:02 43.71426 15.66540 40974 ft 448 kts 293°
2026-05-06 17:03 43.74032 15.58707 40970 ft 449 kts 292°
2026-05-06 17:03 43.76642 15.50838 40969 ft 450 kts 292°
2026-05-06 17:04 43.79247 15.42965 40969 ft 450 kts 292°
2026-05-06 17:04 43.81831 15.35133 40971 ft 450 kts 292°
2026-05-06 17:05 43.84422 15.27254 40979 ft 450 kts 292°
2026-05-06 17:05 43.87015 15.19345 40965 ft 451 kts 292°
2026-05-06 17:06 43.89607 15.11417 40961 ft 451 kts 292°
2026-05-06 17:06 43.92168 15.03561 40952 ft 451 kts 292°
2026-05-06 17:07 43.94737 14.95657 40939 ft 451 kts 292°
2026-05-06 17:07 43.97257 14.87881 40936 ft 451 kts 292°
2026-05-06 17:08 43.99738 14.80200 40936 ft 452 kts 292°
2026-05-06 17:08 44.01937 14.73374 40933 ft 452 kts 292°
2026-05-06 17:09 44.03949 14.67114 40931 ft 452 kts 292°
2026-05-06 17:09 44.05884 14.61078 40932 ft 452 kts 292°
2026-05-06 17:10 44.07575 14.56201 40914 ft 453 kts 295°
2026-05-06 17:10 44.09916 14.50210 41480 ft 428 kts 297°
2026-05-06 17:10 44.10955 14.47417 41714 ft 424 kts 295°
2026-05-06 17:11 44.11949 14.44632 41494 ft 425 kts 293°
2026-05-06 17:11 44.12899 14.41797 40599 ft 439 kts 289°
2026-05-06 17:11 44.14269 14.38724 39586 ft 470 kts 301°
2026-05-06 17:11 44.15654 14.35775 40113 ft 455 kts 301°
2026-05-06 17:12 44.16994 14.32861 40343 ft 449 kts 309°
2026-05-06 17:12 44.18850 14.30649 39611 ft 472 kts 322°
2026-05-06 17:12 44.20743 14.28386 40162 ft 451 kts 313°
2026-05-06 17:12 44.22338 14.25970 40865 ft 435 kts 309°
2026-05-06 17:13 44.24000 14.22717 41142 ft 424 kts 295°
2026-05-06 17:13 44.24921 14.19548 40959 ft 418 kts 282°
2026-05-06 17:13 44.25248 14.15960 40921 ft 414 kts 268°
2026-05-06 17:14 44.25987 14.08679 40950 ft 426 kts 290°
2026-05-06 17:14 44.28084 14.01402 40919 ft 433 kts 290°
2026-05-06 17:15 44.29720 13.95395 40935 ft 436 kts 286°
2026-05-06 17:15 44.31685 13.89020 40858 ft 432 kts 288°
2026-05-06 17:15 44.32747 13.85942 40560 ft 420 kts 281°
2026-05-06 17:16 44.33277 13.82677 38135 ft 458 kts 276°
2026-05-06 17:16 44.34008 13.78866 38316 ft 450 kts 281°
2026-05-06 17:16 44.34679 13.75645 39242 ft 432 kts 282°
2026-05-06 17:16 44.35370 13.72469 39651 ft 429 kts 283°
2026-05-06 17:17 44.36063 13.69403 39864 ft 428 kts 284°
2026-05-06 17:17 44.36812 13.66205 40045 ft 428 kts 284°
2026-05-06 17:17 44.37523 13.63230 40024 ft 432 kts 284°
2026-05-06 17:18 44.38182 13.60509 40022 ft 436 kts 285°
2026-05-06 17:18 44.38782 13.58050 40055 ft 438 kts 285°
2026-05-06 17:19 44.40664 13.49892 40217 ft 440 kts 279°
2026-05-06 17:19 44.41280 13.41451 40444 ft 437 kts 266°
2026-05-06 17:19 44.41139 13.37204 40574 ft 437 kts 263°
2026-05-06 17:20 44.40868 13.32983 40700 ft 437 kts 262°
2026-05-06 17:20 44.40537 13.28752 40850 ft 437 kts 262°
2026-05-06 17:20 44.40194 13.24530 40903 ft 440 kts 262°
2026-05-06 17:21 44.39522 13.15950 40907 ft 445 kts 262°
2026-05-06 17:21 44.38903 13.07543 40900 ft 445 kts 262°
2026-05-06 17:22 44.38301 12.99225 40899 ft 445 kts 262°
2026-05-06 17:22 44.37701 12.90987 40901 ft 445 kts 262°
2026-05-06 17:23 44.37081 12.82603 40895 ft 445 kts 262°
2026-05-06 17:23 44.36464 12.74365 40894 ft 444 kts 262°
2026-05-06 17:24 44.35857 12.66333 40883 ft 444 kts 262°
2026-05-06 17:24 44.35202 12.57748 40891 ft 444 kts 262°
2026-05-06 17:25 44.34545 12.49223 40896 ft 444 kts 262°
2026-05-06 17:25 44.33878 12.40646 40910 ft 444 kts 262°
2026-05-06 17:26 44.33204 12.32074 40893 ft 444 kts 262°
2026-05-06 17:26 44.32523 12.23490 40894 ft 444 kts 262°
2026-05-06 17:27 44.31838 12.14935 40891 ft 443 kts 262°
2026-05-06 17:27 44.31146 12.06380 40891 ft 443 kts 262°
2026-05-06 17:28 44.30448 11.97826 40897 ft 443 kts 261°
2026-05-06 17:28 44.29744 11.89291 40897 ft 443 kts 261°
2026-05-06 17:29 44.29035 11.80759 40892 ft 443 kts 261°
2026-05-06 17:29 44.28323 11.72280 40896 ft 443 kts 261°
2026-05-06 17:30 44.27600 11.63742 40903 ft 442 kts 261°
2026-05-06 17:30 44.26872 11.55219 40906 ft 442 kts 261°
2026-05-06 17:31 44.26181 11.46687 40914 ft 442 kts 261°
2026-05-06 17:31 44.25478 11.38161 40914 ft 441 kts 258°
2026-05-06 17:32 44.23765 11.29991 40938 ft 438 kts 244°
2026-05-06 17:32 44.20512 11.22933 40925 ft 438 kts 229°
2026-05-06 17:33 44.16144 11.17011 40924 ft 439 kts 224°
2026-05-06 17:33 44.11679 11.11425 40928 ft 439 kts 225°
2026-05-06 17:34 44.07850 11.04877 40908 ft 437 kts 239°
2026-05-06 17:34 44.05616 10.97555 40936 ft 437 kts 253°
2026-05-06 17:35 44.04992 10.89136 40936 ft 442 kts 269°
2026-05-06 17:35 44.06207 10.80829 40942 ft 452 kts 285°
2026-05-06 17:36 44.09394 10.68753 40948 ft 451 kts 283°
2026-05-06 17:36 44.11250 10.60436 40947 ft 451 kts 282°
2026-05-06 17:37 44.12904 10.52673 40945 ft 451 kts 282°
2026-05-06 17:37 44.13742 10.48686 40786 ft 448 kts 281°
2026-05-06 17:37 44.14614 10.44521 40077 ft 449 kts 281°
2026-05-06 17:38 44.15492 10.40319 39353 ft 451 kts 281°
2026-05-06 17:38 44.16310 10.36358 38769 ft 450 kts 280°
2026-05-06 17:38 44.17177 10.32170 38028 ft 449 kts 280°
2026-05-06 17:38 44.18039 10.28047 37154 ft 450 kts 279°
2026-05-06 17:39 44.18917 10.23858 36222 ft 452 kts 279°
2026-05-06 17:39 44.19797 10.19663 35254 ft 449 kts 279°
2026-05-06 17:39 44.20633 10.15678 33891 ft 449 kts 279°
2026-05-06 17:39 44.21401 10.11990 32364 ft 452 kts 278°
2026-05-06 17:40 44.22222 10.08451 31019 ft 455 kts 284°
2026-05-06 17:40 44.23505 10.05019 30039 ft 461 kts 296°
2026-05-06 17:40 44.25100 10.01773 29507 ft 443 kts 297°
2026-05-06 17:40 44.26727 9.98600 29024 ft 424 kts 297°
2026-05-06 17:41 44.28250 9.95674 28566 ft 409 kts 297°
2026-05-06 17:41 44.29786 9.92713 28112 ft 407 kts 297°
2026-05-06 17:41 44.31301 9.89755 27600 ft 405 kts 297°
2026-05-06 17:41 44.32808 9.86804 27132 ft 402 kts 297°
2026-05-06 17:42 44.34221 9.84028 26696 ft 399 kts 297°
2026-05-06 17:42 44.35637 9.81244 26240 ft 397 kts 297°
2026-05-06 17:42 44.36967 9.78622 25797 ft 395 kts 297°
2026-05-06 17:42 44.38331 9.75935 25366 ft 393 kts 297°
2026-05-06 17:43 44.39656 9.73322 24937 ft 391 kts 297°
2026-05-06 17:43 44.40888 9.70892 24518 ft 389 kts 297°
2026-05-06 17:43 44.42142 9.68417 24103 ft 387 kts 298°
2026-05-06 17:43 44.43394 9.65944 23704 ft 385 kts 298°
2026-05-06 17:44 44.44684 9.63401 23257 ft 382 kts 298°
2026-05-06 17:44 44.46109 9.60977 22797 ft 384 kts 306°
2026-05-06 17:44 44.47565 9.58857 22399 ft 381 kts 307°
2026-05-06 17:44 44.49148 9.56594 21945 ft 377 kts 306°
2026-05-06 17:45 44.50509 9.54586 21582 ft 372 kts 306°
2026-05-06 17:45 44.51823 9.52614 21139 ft 370 kts 306°
2026-05-06 17:45 44.53179 9.50567 20708 ft 369 kts 306°
2026-05-06 17:45 44.54546 9.48559 20406 ft 365 kts 307°
2026-05-06 17:46 44.56106 9.46318 20017 ft 363 kts 307°
2026-05-06 17:46 44.57467 9.44341 19652 ft 363 kts 306°
2026-05-06 17:46 44.58757 9.42446 19298 ft 360 kts 306°
2026-05-06 17:46 44.60051 9.40564 18759 ft 364 kts 308°
2026-05-06 17:47 44.61305 9.38675 18529 ft 354 kts 304°
2026-05-06 17:47 44.62638 9.36683 18191 ft 344 kts 304°
2026-05-06 17:47 44.63798 9.34694 17738 ft 351 kts 303°
2026-05-06 17:47 44.65011 9.32775 17444 ft 355 kts 308°
2026-05-06 17:48 44.66460 9.31060 16981 ft 363 kts 317°
2026-05-06 17:48 44.67968 9.29432 16594 ft 361 kts 317°
2026-05-06 17:48 44.69418 9.27728 16191 ft 356 kts 312°
2026-05-06 17:48 44.70725 9.25827 15813 ft 345 kts 303°
2026-05-06 17:49 44.71801 9.23401 15446 ft 335 kts 293°
2026-05-06 17:49 44.72954 9.21069 15075 ft 338 kts 309°
2026-05-06 17:49 44.74672 9.19048 14878 ft 349 kts 314°
2026-05-06 17:49 44.76492 9.16769 14548 ft 352 kts 317°
2026-05-06 17:50 44.78486 9.14719 13796 ft 359 kts 319°
2026-05-06 17:50 44.80451 9.12783 13211 ft 358 kts 320°
2026-05-06 17:50 44.82324 9.10949 12727 ft 353 kts 321°
2026-05-06 17:50 44.84120 9.09187 12297 ft 347 kts 321°
2026-05-06 17:51 44.85714 9.07634 11915 ft 343 kts 321°
2026-05-06 17:51 44.87659 9.05726 11448 ft 337 kts 322°
2026-05-06 17:51 44.89544 9.03864 10987 ft 332 kts 321°
2026-05-06 17:51 44.91423 9.02009 10644 ft 325 kts 320°
2026-05-06 17:52 44.93237 9.00221 10506 ft 311 kts 321°
2026-05-06 17:52 44.94976 8.98512 10374 ft 298 kts 320°
2026-05-06 17:52 44.96733 8.97059 10232 ft 290 kts 334°
2026-05-06 17:52 44.98620 8.96173 10101 ft 283 kts 340°
2026-05-06 17:53 45.00509 8.95447 9808 ft 281 kts 342°
2026-05-06 17:53 45.02426 8.94726 9541 ft 291 kts 341°
2026-05-06 17:53 45.04412 8.93969 9384 ft 298 kts 342°
2026-05-06 17:53 45.06409 8.93214 8917 ft 297 kts 342°
2026-05-06 17:54 45.08405 8.92458 8505 ft 296 kts 342°
2026-05-06 17:54 45.10391 8.91702 8173 ft 294 kts 342°
2026-05-06 17:54 45.12362 8.90950 7864 ft 293 kts 342°
2026-05-06 17:54 45.14325 8.90200 7554 ft 292 kts 342°
2026-05-06 17:55 45.16285 8.89455 7244 ft 290 kts 342°
2026-05-06 17:55 45.18234 8.88707 6939 ft 289 kts 342°
2026-05-06 17:55 45.20149 8.87971 6635 ft 288 kts 343°
2026-05-06 17:55 45.22084 8.87225 6327 ft 287 kts 343°
2026-05-06 17:56 45.24009 8.86483 6009 ft 285 kts 343°
2026-05-06 17:56 45.25925 8.85748 5742 ft 285 kts 343°
2026-05-06 17:56 45.27835 8.85015 5479 ft 284 kts 343°
2026-05-06 17:56 45.29742 8.84282 5315 ft 280 kts 343°
2026-05-06 17:57 45.31580 8.83576 5188 ft 267 kts 343°
2026-05-06 17:57 45.33340 8.82899 5053 ft 256 kts 343°
2026-05-06 17:57 45.35023 8.82251 4920 ft 246 kts 343°
2026-05-06 17:57 45.36635 8.81630 4783 ft 235 kts 343°
2026-05-06 17:58 45.38170 8.81037 4654 ft 229 kts 343°
2026-05-06 17:58 45.39706 8.80442 4529 ft 228 kts 343°
2026-05-06 17:58 45.41184 8.79652 4402 ft 227 kts 334°
2026-05-06 17:58 45.42705 8.79033 4214 ft 228 kts 349°
2026-05-06 17:59 45.44262 8.78644 4040 ft 226 kts 347°
2026-05-06 17:59 45.45788 8.78161 3894 ft 223 kts 346°
2026-05-06 17:59 45.46778 8.77850 3729 ft 221 kts 347°
2026-05-06 17:59 45.48522 8.77355 3383 ft 220 kts 348°
2026-05-06 18:00 45.50014 8.76947 3080 ft 220 kts 348°
2026-05-06 18:00 45.51006 8.76669 2883 ft 219 kts 349°
2026-05-06 18:00 45.52470 8.76261 2581 ft 215 kts 349°
2026-05-06 18:00 45.53895 8.75869 2300 ft 202 kts 349°
2026-05-06 18:01 45.55227 8.75500 2055 ft 187 kts 349°
2026-05-06 18:01 45.56454 8.75161 1787 ft 174 kts 350°
2026-05-06 18:01 45.57597 8.74845 1544 ft 162 kts 350°
2026-05-06 18:01 45.58657 8.74552 1348 ft 149 kts 350°
2026-05-06 18:02 45.59629 8.74284 1154 ft 135 kts 349°
2026-05-06 18:02 45.60520 8.74037 966 ft 128 kts 350°
2026-05-06 18:02 45.61384 8.73794 819 ft 130 kts 350°
2026-05-06 18:02 45.62257 8.73560 745 ft 116 kts 349°
2026-05-06 18:03 45.62783 8.73417 744 ft 37 kts 349°
2026-05-06 18:03 45.62928 8.73377 744 ft 19 kts 349°
2026-05-06 18:03 45.63060 8.73314 741 ft 21 kts 335°
2026-05-06 18:03 45.63187 8.73196 746 ft 22 kts 317°
2026-05-06 18:04 45.63283 8.73025 745 ft 22 kts 302°
2026-05-06 18:04 45.63367 8.72843 743 ft 21 kts 304°
2026-05-06 18:04 45.63408 8.72641 746 ft 22 kts 260°
2026-05-06 18:04 45.63376 8.72416 744 ft 24 kts 259°
2026-05-06 18:05 45.63345 8.72180 744 ft 24 kts 260°
2026-05-06 18:05 45.63324 8.72028 745 ft 14 kts 259°
2026-05-06 18:05 45.63304 8.71880 745 ft 12 kts 250°
2026-05-06 18:05 45.63253 8.71867 743 ft 11 kts 169°
2026-05-06 18:06 45.63146 8.71897 746 ft 20 kts 167°
2026-05-06 18:06 45.63009 8.71923 744 ft 15 kts 201°
2026-05-06 18:06 45.62967 8.71790 743 ft 14 kts 246°
2026-05-06 18:06 45.62910 8.71727 743 ft 11 kts 228°
2026-05-06 18:07 45.62887 8.71708 747 ft 3 kts 174°
2026-05-06 18:07 45.62871 8.71692 743 ft 5 kts 241°
2026-05-06 18:07 45.62866 8.71654 747 ft 0 kts 259°